1st Responders/1st Detectors/Storm Spotters Weather Summary for Hopkins County, KY

Forecast Maps


Reg. NEXRAD Animation


National Fire Danger: Day 1 & 2 Map

Current NWS Watch/Warnings

SPC Convective Day 1 Outlook


Day 2 Outlook

(Click images to enlarge|Page will refresh every 5 minutes)
UK Ag. Weather Center Desktop Severe Weather Service[HERE]
Hopkins County, KY Hazardous Weather Outlook Webcast
(9 AM to 9 PM Mon-Fri)
[Fast]
[Dial-up]


UKAWC 1st Detectors/1st Responders Precision Weather Forecast For HOPKINS County, Kentucky
(based on the NWS County Digital Forecast)

ISSUED AT 17:00 UTC ON FRIDAY MAR 22 2019
DAY FRIDAY
CDT 3HR 1P 2P 3P 4P 5P 6P
MAX/MIN -- -- -- -- -- 63°
TEMP 59° 61° 63° 63° 61° 58°
SKY COVER 4% 5% 7% 8% 7% 5%
Clouds
DEW PT 36° 36° 36° 34° 34° 34°
RH 40% 37% 36% 34% 37% 41%
POP 12HR -- -- -- -- -- --
RAIN/SNOW (liq.equ) 0.00in -- -- -- -- --
SNOWFALL 0in -- -- -- -- --
WIND SPEED(MPH) 10 13 13 13 10 8
WIND Gust(MPH) 17 17 17 16 15 13
WIND DIR NW NW NW NW NW N
DEW -- -- -- -- -- --
HeatIndex 59 61 63 63 61 58
Rain Showers -- -- -- -- -- --
Thunder Storm -- -- -- -- -- --
WIND CHILL -- -- -- -- -- --
SPRAY COND
DRY COND
LIVESTOCK COLDSTRESS



DAY SATURDAY SUNDAY MONDAY TUESDAY WEDNESDAY THURSDAY
CDT 6HR 7P 8P 9P 10P 11P MIDN 1A 2A 3A 4A 5A 6A 7A 8A 9A 10A 11A NOON 1P 2P 3P 4P 5P 6P 7P 8P 9P 10P 11P MIDN 1A 4A 7A 10A 1P 4P 7P 1A 7A 1P 7P 1A 7A 1P 7P 1A 7A 1P 7P 1A 7A 1P 7P
MAX/MIN -- -- -- -- -- -- -- -- -- -- -- -- 31° -- -- -- -- -- -- -- -- -- -- 58° -- -- -- -- -- -- -- -- 41° -- -- 61° -- -- 49° 61° -- -- 34° 50° -- -- 31° 58° -- -- 43° 67° --
TEMP 54° 52° 49° 45° 43° 40° 38° 38° 36° 36° 32° 31° 31° 34° 38° 43° 47° 50° 54° 56° 58° 58° 58° 54° 50° 49° 47° 45° 43° 43° 43° 43° 43° 52° 59° 61° 58° 52° 49° 61° 52° 43° 34° 49° 47° 38° 34° 56° 54° 47° 45° 65° 61°
SKY COVER 4% 5% 5% 6% 6% 6% 6% 7% 8% 9% 9% 9% 8% 7% 6% 4% 5% 5% 6% 12% 18% 24% 32% 39% 47% 51% 60% 65% 69% 77% 81% 76% 79% 84% 93% 94% 87% 92% 84% 83% 82% 60% 30% 14% 12% 7% 4% 5% 24% 21% 40% 54% 63%
Clouds
DEW PT 34° 34° 34° 34° 32° 32° 31° 31° 29° 27° 27° 25° 25° 25° 25° 25° 25° 25° 25° 25° 25° 25° 25° 27° 29° 29° 29° 29° 31° 31° 31° 31° 32° 38° 45° 47° 47° 49° 49° 49° 38° 29° 22° 22° 25° 25° 25° 31° 36° 36° 36° 41° 43°
RH 44% 50% 55% 62% 67% 72% 75% 75% 75% 72% 78% 81% 78% 68% 56% 47% 40% 37% 33% 31% 28% 28% 28% 35% 42% 45% 51% 54% 59% 64% 64% 61% 67% 60% 57% 57% 66% 86% 96% 64% 59% 59% 63% 33% 42% 61% 72% 38% 52% 68% 73% 41% 49%
POP 12HR 0% -- -- -- -- -- -- -- -- -- -- -- 0% -- -- -- -- -- -- -- -- -- -- -- 1% -- -- -- -- -- -- -- 14% -- -- -- 39% -- 88% -- 42% -- 13% -- 2% -- 1% -- 1% -- 2% -- 3%
RAIN/SNOW (liq.equ) 0.00in -- -- -- -- -- 0.00in -- -- -- -- -- 0.00in -- -- -- -- -- 0.00in -- -- -- -- -- 0.00in -- -- -- -- -- 0.00in -- 0.00in -- 0.00in -- 0.11in 0.07in 0.22in -- -- -- -- -- -- -- -- -- -- -- -- -- --
SNOWFALL 0in -- -- -- -- -- 0in -- -- -- -- -- 0in -- -- -- -- -- 0in -- -- -- -- -- 0in -- -- -- -- -- 0in -- 0in -- 0in -- 0in 0in 0in -- -- -- -- -- -- -- -- -- -- -- -- -- --
WIND SPEED(MPH) 7 6 5 5 5 5 5 5 2 2 2 2 2 2 5 5 5 5 5 5 5 5 5 2 2 2 5 5 5 5 5 5 6 8 10 10 8 8 6 10 13 9 9 9 7 5 5 6 5 7 7 15 13
WIND DIR N N N N NE NE NE NE NE NE NE NE NE E E E E E E E E E E E E E E E E SE SE SE SE S S S S S W N N N NE NE N NE E S S S S S S
HeatIndex 54 52 49 45 40 38 35 34 34 33 29 27 27 31 35 41 47 50 54 56 58 58 58 54 50 49 47 42 41 40 40 40 39 52 59 61 58 52 49 61 52 37 25 49 47 34 29 56 54 47 40 65 61
Rain Showers -- -- -- -- -- -- -- -- -- -- -- -- -- -- -- -- -- -- -- -- -- -- -- -- -- -- -- -- -- -- -- -- Chance Chance Chance Chance Chance Definite Chance Chance -- -- -- -- -- -- -- -- -- -- -- -- --
Thunder Storm -- -- -- -- -- -- -- -- -- -- -- -- -- -- -- -- -- -- -- -- -- -- -- -- -- -- -- -- -- -- -- -- -- -- -- -- Chance Slight Chance -- -- -- -- -- -- -- -- -- -- -- -- -- -- --
WIND CHILL -- -- -- 43° 40° 37° 35° 35° -- -- -- -- -- -- 35° 40° -- -- -- -- -- -- -- -- -- -- -- 43° 40° 40° 40° 40° 39° -- -- -- -- -- -- -- -- 38° 27° -- -- 35° 30° -- -- -- 41° -- --
SPRAY COND
DRY COND
LIVESTOCK COLDSTRESS

Click on individual weather variable above in left-hand column (ie., TEMP, RH, QPF 12HR) to view state forecast maps






NWS 48 Hr. Forecast Maps,

Regional Hourly Observations For HOPKINS County, Kentucky
Issued at 100 PM EDT FRI MAR 22 2019
WESTERN AND SOUTH CENTRAL KENTUCKY
  
CITY           SKY/WX    TMP DP  RH WIND       PRES   REMARKS
PADUCAH        FAIR      61  36  39 W12G17    30.12F                  
HENDERSON      FAIR      53  40  61 W15G22    30.11R                  
OWENSBORO      FAIR      54  39  57 NW14G20   30.09S                  
HOPKINSVILLE   NOT AVBL                                               
BOWLING GREEN  FAIR      60  33  36 W14G23    30.07F                  
GLASGOW        FAIR      57  33  41 W14G22    30.06S                  


Current NOWCAST not available:
Nowcasts are not issued routinely during fair weather. Only when
precipitation or other significant weather is occuring in this county will these
forecasts be issued. Currently, there is no short term forecast in effect.


Fire Weather Forecast For HOPKINS County, KY
Provided by the National Weather Service:

Issued at: Fri Mar 22 13:05:01 EDT 2019

Precip Type           None         None         None         
Chance Precip (%)     0            0            0            
High Temperature(F)   59-63                     56-60        
Minimum RH(%)         30-35                     30-35        
Low Temperature(F)                 28-32                     
Maximum RH(%)                      80-85                     
Temp (24h Trend)      63 (+13)     29 (-5)      59           
RH % (24h Trend)      33 (-19)     83 (-13)     33           
20FTWND-AM(MPH)       W 7-11 G23                Lgt/Var      
20FTWND-PM(MPH)       NW 10-14 G23 N 3-7        Lgt/Var      
Precip Amount         0.00         0.00         0.00         
Precip Duration                                              
Precip Begin                                                 
Precip End                                                   
1700'Mix Hgt Temp     52                        49           
Mixing Hgt(FT-AGL)    4848                      3949         
Transport Wind (KTS)  NW 22                     SE  3        
Transport Wind (M/S)  NW 11                     SE  2        
Vent Rate (M/S-M)     16258                     2408         
Dispersion Index      Very Good                 Poor         
LAL                   1            1            1            
Haines Index          4            3            4            
Stability(DSI)        SLGT UNSTBL  N/A          STBL         

Remarks...None.

.Forecast for days 3 through 7...

.SATURDAY NIGHT...Mostly cloudy. Lows in the lower 40s. Southeast
winds around 5 mph. 
.SUNDAY...Cloudy with a 50 percent chance of rain showers. Highs
in the lower 60s. South winds 5 to 15 mph. 
.SUNDAY NIGHT...Cloudy with a 50 percent chance of showers and
thunderstorms. Lows in the lower 50s. Southwest winds 5 to
10 mph. 
.MONDAY...Mostly cloudy with a 50 percent chance of rain showers.
Highs around 60. Northwest winds 5 to 15 mph. 
.MONDAY NIGHT...Mostly cloudy. Colder. Lows in the mid 30s. North
winds 10 to 15 mph. 
.TUESDAY...Sunny. Highs in the lower 50s. Northeast winds 5 to
10 mph. 
.TUESDAY NIGHT...Mostly clear. Lows in the lower 30s. Northeast
winds 5 to 10 mph. 
.WEDNESDAY...Sunny. Highs in the upper 50s. Southeast winds
around 5 mph. 
.WEDNESDAY NIGHT...Mostly clear. Not as cool. Lows in the lower
40s. South winds 5 to 10 mph. 
.THURSDAY...Partly sunny. Highs in the upper 60s. South winds
5 to 15 mph. 

SPC's Fire Weather Web Tool (Excellent!), SPC's Fire Weather Outlooks, NWS Fire Weather WEB, Fire Danger Class Map,
Keetch-Byram Drought Index, ROMAN Web, Haines Index ,
WFAS's 10-hr Dead Fuel Moist., WFAS's 100-hr Dead Fuel Moist., Probablity of Ignition, Visual blackness Map, Palmer Drought Index, HPC's Rainfall Forecast Maps


Hazardous Weather Outlook For HOPKINS County, Kentucky
349 AM CDT Fri Mar 22 2019

 DAY ONE  Today and Tonight

No hazardous weather is expected at this time.

Moderate flooding continues on the Mississippi River and the Ohio
River downstream of Paducah to Cairo.  Minor flooding continues 
on a few other rivers. Please refer to flood statements for more 
details.

 DAYS TWO THROUGH SEVEN  Saturday through Thursday

There is a chance for a few thunderstorms Sunday and Sunday night.
Severe weather is not expected.

Flooding will continue on several rivers. Please refer to flood
statements for details.

 SPOTTER INFORMATION STATEMENT  

Spotter activation will not be needed.

Latest HOPKINS County, Kentucky Watches, Warnings and Advisories.
Additional Drought Info.: UKAWC Drought Page, Kentucky Drought Watch


7-Day Forecast For HOPKINS County, KY

TODAY
Mostly sunny. Highs around 60. Northwest winds 10 to 15 mph.

TONIGHT
Clear. Lows around 30. Northeast winds around 5 mph.

SATURDAY
Sunny. Highs in the upper 50s. East winds around 5 mph.

SATURDAY NIGHT
Partly cloudy in the evening then becoming mostly cloudy. Lows in the lower 40s. Southeast winds around 5 mph.

SUNDAY
Mostly cloudy with a 50 percent chance of showers. Highs in the lower 60s. South winds 10 to 15 mph.

SUNDAY NIGHT
Mostly cloudy. A chance of showers and thunderstorms in the evening, then showers and a slight chance of thunderstorms after midnight. Lows around 50. Chance of precipitation 90 percent.

MONDAY
Mostly cloudy with a 50 percent chance of showers. Highs around 60.

MONDAY NIGHT
Mostly cloudy. Lows in the lower 30s.

TUESDAY
Mostly sunny. Highs in the lower 50s.

TUESDAY NIGHT
Clear. Lows in the lower 30s.

WEDNESDAY
Sunny. Highs in the upper 50s.

WEDNESDAY NIGHT
Mostly clear. Lows in the lower 40s.

THURSDAY
Partly sunny. Highs in the upper 60s.

Ag Weather Center, Department of Biosystems & Agricultural Engineering, University of Kentucky